Content
SEND FEEDBACK

Daily
Averages
Monthly
Summary
Romania

TIMISOARA, ROMANIA


Home > Europe > Romania
Elevation: 335 feet     Latitude: 45 45N     Longitude: 021 14E

WEATHER
 
SELECT A DAY
Number of Records: 282,282;   Date Range: 7/1/96 - 10/23/14
 
SHARE

PRINT THIS DATA

[ ← Previous Day ]
WEATHER ALMANAC - JANUARY 29, 2014
[ Next Day → ]
[ °C ]   °F
Weather ElementAverageHighLow
Temperature26.5 °F30.2 °F (12:30 am)19.4 °F (10:30 pm)
Dewpoint25 °F28.4 °F (12:30 am)17.6 °F (10:30 pm)
Humidity93.9 %100 % (1:00 am)93 % (12:30 am)
Barometer29.79 in30.01 in (10:30 pm)29.62 in (12:30 am)
Wind Speed4.9 mph10.4 mph (6:30 am)
Weather ElementAverage
Visibility2.9 mi
Wind DirectionSW (229.1 °)

Weather ElementTotal
Precipitation---
Heating Degree Days40.2 (Base 65)
Averaged from 47 records on January 29, 2014
WEATHER CONDITIONS BREAKOUT
WIND DIRECTION BREAKOUT
WEATHER BY HOUR - JANUARY 29, 2014
[ °C ]   °F
Local TimeTemperatureDewpointHumidityBarometerVisibilityWind DirectionWind SpeedGust SpeedPrecipitationEventsConditions
12:30 AM30.2 °F28.4 °F93 %29.62 in4.3 miEast (90°)4.6 mph
1:00 AM28.4 °F28.4 °F100 %29.62 in5.0 miEast (90°)6.9 mph
1:30 AM28.4 °F26.6 °F93 %29.62 in5.6 miSouth (180°)3.5 mph
2:00 AM28.4 °F26.6 °F93 %29.65 in6.2 miSouth (190°)1.2 mphPartly Cloudy
2:30 AM28.4 °F26.6 °F93 %29.62 in6.2 miWNW (300°)2.3 mphScattered Clouds
3:00 AM28.4 °F26.6 °F93 %29.62 in6.2 miWNW (300°)3.5 mphPartly Cloudy
3:30 AM28.4 °F26.6 °F93 %29.65 in5.0 miNW (320°)3.5 mph
4:00 AM28.4 °F26.6 °F93 %29.62 in4.3 miWSW (240°)2.3 mphPartly Cloudy
4:30 AM28.4 °F26.6 °F93 %29.65 in2.5 miWSW (250°)5.8 mphSnowLight Snow
5:00 AM28.4 °F26.6 °F93 %29.65 in1.9 miWest (260°)6.9 mphSnowSnow
5:30 AM28.4 °F26.6 °F93 %29.65 in1.2 miWest (260°)6.9 mphSnowSnow
6:00 AM28.4 °F26.6 °F93 %29.65 in0.7 miWest (260°)8.1 mphSnowHeavy Snow
6:30 AM26.6 °F26.6 °F100 %29.68 in1.9 miWest (260°)10.4 mphSnowSnow
7:00 AM26.6 °F24.8 °F93 %29.68 in1.6 miWest (280°)10.4 mphSnowSnow
7:30 AM26.6 °F24.8 °F93 %29.68 in0.9 miWest (280°)8.1 mphSnowSnow
8:00 AM26.6 °F24.8 °F93 %29.71 in0.9 miWest (280°)6.9 mphSnowLight Snow
8:30 AM26.6 °F24.8 °F93 %29.71 in0.9 miWest (280°)4.6 mphSnowLight Snow
9:00 AM26.6 °F24.8 °F93 %29.74 in1.1 miWNW (290°)4.6 mphSnowLight Snow
9:30 AM26.6 °F24.8 °F93 %29.74 in1.2 miWNW (290°)5.8 mphSnowLight Snow
10:00 AM26.6 °F26.6 °F100 %29.74 in1.2 miWNW (300°)5.8 mphSnowLight Snow
10:30 AM26.6 °F26.6 °F100 %29.77 in1.1 miWNW (300°)4.6 mphSnowLight Snow
11:00 AM28.4 °F26.6 °F93 %29.77 in1.2 miWNW (300°)4.6 mphSnowLight Snow
11:30 AM28.4 °F26.6 °F93 %29.80 in1.2 miWNW (300°)6.9 mphSnowLight Snow
12:00 PM28.4 °F26.6 °F93 %29.80 in1.2 miNW (310°)5.8 mphSnowLight Snow
12:30 PM28.4 °F26.6 °F93 %29.80 in1.2 miNW (320°)5.8 mphSnowLight Snow
1:00 PM28.4 °F26.6 °F93 %29.80 in1.2 miNNW (330°)5.8 mphSnowLight Snow
1:30 PM28.4 °F26.6 °F93 %29.80 in3.1 miNW (320°)4.6 mphSnowLight Snow
2:00 PM28.4 °F26.6 °F93 %29.83 in4.3 miNNW (340°)3.5 mphMostly Cloudy
2:30 PM28.4 °F26.6 °F93 %29.83 in5.0 miNNW (340°)3.5 mphMostly Cloudy
3:00 PM28.4 °F26.6 °F93 %29.83 in3.7 miNW (320°)4.6 mphOvercast
3:30 PM28.4 °F26.6 °F93 %29.83 in5.0 miNW (320°)5.8 mphOvercast
4:00 PM28.4 °F26.6 °F93 %29.86 in5.0 miNW (320°)4.6 mphOvercast
4:30 PM28.4 °F26.6 °F93 %29.86 in5.0 miNW (310°)5.8 mphOvercast
5:00 PM28.4 °F26.6 °F93 %29.89 in5.0 miNW (310°)5.8 mphOvercast
5:30 PM26.6 °F26.6 °F100 %29.89 in4.3 miNW (320°)4.6 mphMostly Cloudy
6:00 PM24.8 °F24.8 °F100 %29.89 in3.1 miWNW (300°)4.6 mphMostly Cloudy
6:30 PM24.8 °F23.0 °F93 %29.89 in3.1 miNorth (350°)2.3 mphMostly Cloudy
7:00 PM24.8 °F23.0 °F93 %29.92 in3.7 miNNE (30°)3.5 mphScattered Clouds
7:30 PM23.0 °F21.2 °F93 %29.92 in3.1 miNNE (30°)3.5 mphPartly Cloudy
8:00 PM23.0 °F21.2 °F93 %29.92 in3.1 miNNE (30°)4.6 mphScattered Clouds
8:30 PM23.0 °F21.2 °F93 %29.95 in2.8 miNNE (30°)5.8 mphPartly Cloudy
9:00 PM21.2 °F19.4 °F93 %29.95 in2.5 miNNE (20°)3.5 mphPartly Cloudy
9:30 PM21.2 °F19.4 °F93 %29.98 in2.5 miNorth (10°)4.6 mphMist
10:00 PM21.2 °F19.4 °F93 %29.98 in1.6 miNNE (20°)4.6 mphMist
10:30 PM19.4 °F17.6 °F93 %30.01 in1.6 miNE (40°)2.3 mphMist
11:00 PM19.4 °F17.6 °F93 %30.01 in1.9 miNE (50°)2.3 mphMist
11:30 PM23.0 °F21.2 °F93 %30.01 in1.6 miEast (100°)2.3 mphSnowLight Snow
Hourly data recorded from LRTR, located miles away from Timisoara, Romania







STORIES FROM OUR PARTNERS